STARLINK-2447 (48110 NORAD) Tracking and Keplerian Element Data

This shows tracking and keplerian element data for the satellite.

Feedback or suggestion? Click here.




ElementValue
Catalog48110
NameSTARLINK-2447
Epoch Orbit195
Epoch Day173.91668981
Epoch Year2021
RAAN326.6598
Inclination53.0474
Eccentricity0.0001477
Argument of Perigee69.0854
Mean Anonmoly123.5658
Mean Motion15.17840927
Decay Rate-0.01051951
L11 48110U 21027U 21173.91668981 -.01051951 00000-0 -56058-1 0 9997
L22 48110 53.0474 326.6598 0001477 69.0854 123.5658 15.17840927 1958

Live tracking and technical data element details for STARLINK-2447 (NORAD 48110). STARLINK-2447 can be tracked NOW for your location showing map with azimuth and elevation plus other details from your city location.

Track the satellite on the map from your city or location and see movement details for azimuth, elevation, latitude, longitude, range, height, and movement on the map or in text.







IsCatalogInMostPopularTable: catalog: 48110, numindb: 34
Update: records affected: 1



GetName: 48110 STARLINK-2447

Hit Count: updated at: Thu, 24 Jun 2021 02:42:47 GMT